Content
SEND FEEDBACK

Daily
Averages
Monthly
Summary
United States of America

ST. LOUIS, MISSOURI


Home > North America > United States > Missouri
Elevation: 535 feet     Latitude: 38 45N     Longitude: 090 22W

WEATHER
 
SELECT A DAY
Number of Records: 199,614;   Date Range: 1/1/95 - 10/19/14
 
SHARE

PRINT THIS DATA

[ ← Previous Day ]
WEATHER ALMANAC - JANUARY 20, 2013
[ Next Day → ]
[ °C ]   °F
Weather ElementAverageHighLow
Temperature31.4 °F41 °F (1:54 am)24.1 °F (11:54 pm)
Dewpoint12.8 °F28.4 °F (1:54 am)8.1 °F (8:54 am)
Humidity47.1 %69 % (5:54 am)33 % (1:54 pm)
Barometer30.31 in30.37 in (8:54 am)30.20 in (1:54 am)
Wind Speed8.1 mph15 mph (2:54 am)
Wind Gust19.6 mph (1:54 am)
Weather ElementAverage
Visibility10 mi
Wind DirectionW (268.7 °)

Weather ElementTotal
Precipitation---
Heating Degree Days32.5 (Base 65)
Averaged from 23 records on January 20, 2013
WEATHER CONDITIONS BREAKOUT
WIND DIRECTION BREAKOUT
WEATHER BY HOUR - JANUARY 20, 2013
[ °C ]   °F
Local TimeTemperatureDewpointHumidityBarometerVisibilityWind DirectionWind SpeedGust SpeedPrecipitationEventsConditions
1:54 AM41.0 °F28.4 °F61 %30.20 in10.0 miNNW (330°)13.8 mph19.6 mphClear
2:54 AM39.9 °F21.0 °F47 %30.22 in10.0 miWNW (300°)15.0 mphClear
3:54 AM37.0 °F19.9 °F50 %30.25 in10.0 miNW (320°)10.4 mphClear
4:54 AM34.0 °F18.0 °F52 %30.27 in10.0 miNorth (350°)11.5 mph17.3 mphClear
5:54 AM30.0 °F21.0 °F69 %30.31 in10.0 miNorth (350°)8.1 mphClear
6:54 AM28.0 °F17.1 °F63 %30.33 in10.0 miNorth (350°)5.8 mphClear
7:54 AM28.0 °F12.0 °F51 %30.35 in10.0 miNorth (360°)6.9 mphScattered Clouds
8:54 AM28.9 °F8.1 °F41 %30.37 in10.0 miNorth (350°)8.1 mphPartly Cloudy
9:54 AM30.0 °F8.1 °F40 %30.37 in10.0 miNNE (30°)3.5 mphClear
10:54 AM32.0 °F10.0 °F40 %30.36 in10.0 miNW (310°)3.5 mphPartly Cloudy
11:54 AM33.8 °F10.4 °F38 %30.30 in10.0 miCalmScattered Clouds
12:54 PM35.1 °F10.0 °F35 %30.31 in10.0 miNW (310°)9.2 mphScattered Clouds
1:54 PM35.1 °F8.1 °F33 %30.32 in10.0 miNNW (340°)9.2 mphMostly Cloudy
2:54 PM35.6 °F8.6 °F33 %30.28 in10.0 miNNE (20°)9.2 mphClear
3:54 PM32.0 °F10.0 °F40 %30.32 in10.0 miNorth (360°)9.2 mphMostly Cloudy
4:54 PM30.9 °F9.0 °F40 %30.33 in10.0 miNorth (10°)8.1 mphMostly Cloudy
5:54 PM30.0 °F10.0 °F43 %30.32 in10.0 miNNE (20°)3.5 mphMostly Cloudy
6:54 PM28.9 °F12.0 °F49 %30.32 in10.0 miNorth (360°)5.8 mphMostly Cloudy
7:54 PM28.0 °F12.9 °F53 %30.33 in10.0 miNorth (360°)9.2 mphMostly Cloudy
8:54 PM27.0 °F10.9 °F51 %30.33 in10.0 miNorth (360°)8.1 mphMostly Cloudy
9:54 PM27.0 °F10.9 °F51 %30.34 in10.0 miNNW (340°)10.4 mphOvercast
10:54 PM26.1 °F10.0 °F51 %30.34 in10.0 miNNW (330°)10.4 mphOvercast
11:54 PM24.1 °F9.0 °F53 %30.34 in10.0 miNW (320°)6.9 mphPartly Cloudy
Hourly data recorded from KSUS, located miles away from St. Louis, Missouri







STORIES FROM OUR PARTNERS